User: anonymous   Login
Location: Gradaro
(45.0833°N, 10.8833°E)
Time: 04:46:52
(UTC+00:00)
Language:

COSMO-SKYMED 1 - Orbit

View from above orbital plane
View from above orbital plane
View from above satellite
View from above satellite

Ground track
Ground track

The orbit data is extracted from the following two-line orbital elements,

1 31598U 07023A   21059.74775486  .00000297  00000-0  43837-4 0  9990
2 31598  97.8846 245.1828 0001387  95.0207 265.1171 14.82155045742799
Epoch (UTC): 28 February 2021 17:56:46
Eccentricity: 0.0001387
inclination: 97.8846°
perigee height: 621 km
apogee height: 623 km
right ascension of ascending node: 245.1828°
argument of perigee: 95.0207°
revolutions per day: 14.82155045
mean anomaly at epoch: 265.1171°
orbit number at epoch: 74279

The dashed part of the orbit path shows where the satellite is in the earth's shadow,  

DLR